Precipitable_Water
0.76 0.80 0.82 0.82 0.81 0.76 0.71 0.68 0.71 0.75 0.80 0.87 0.90 0.97 1.06 1.06 1.04 1.05 1.10 1.10 1.21 1.25
0.64 0.63 0.61 0.64 0.67 0.72 0.81 0.75 0.75 0.75 0.73 0.73 0.74 0.75 0.88 0.95 0.98 1.06 1.05 1.07 1.12 1.12
0.67 0.67 0.69 0.68 0.70 0.70 0.65 0.59 0.59 0.60 0.60 0.57 0.58 0.58 0.61 0.70 0.83 0.94 1.01 1.02 0.99 1.06
0.49 0.49 0.48 0.49 0.51 0.51 0.52 0.52 0.49 0.46 0.43 0.42 0.43 0.46 0.48 0.49 0.56 0.61 0.71 0.87 0.91 0.92
0.26 0.27 0.31 0.27 0.26 0.27 0.25 0.25 0.25 0.24 0.23 0.22 0.22 0.26 0.30 0.33 0.34 0.39 0.41 0.49 0.51 0.58
0.27 0.26 0.25 0.25 0.24 0.23 0.22 0.21 0.20 0.20 0.19 0.19 0.19 0.20 0.22 0.21 0.23 0.26 0.28 0.30 0.30 0.31
0.27 0.26 0.25 0.24 0.23 0.21 0.20 0.20 0.20 0.20 0.20 0.19 0.19 0.20 0.19 0.19 0.18 0.19 0.21 0.22 0.24 0.24
0.30 0.29 0.28 0.26 0.23 0.22 0.22 0.22 0.21 0.20 0.20 0.19 0.19 0.19 0.21 0.22 0.20 0.19 0.18 0.18 0.22 0.22
0.34 0.33 0.29 0.27 0.26 0.26 0.25 0.26 0.25 0.25 0.25 0.24 0.23 0.23 0.24 0.25 0.23 0.21 0.20 0.20 0.22 0.24
0.32 0.28 0.26 0.26 0.26 0.25 0.26 0.27 0.27 0.27 0.28 0.28 0.29 0.30 0.31 0.31 0.29 0.27 0.24 0.23 0.22 0.22
0.28 0.23 0.22 0.22 0.22 0.24 0.25 0.26 0.26 0.26 0.27 0.27 0.27 0.29 0.30 0.31 0.31 0.28 0.27 0.27 0.28 0.28
0.24 0.21 0.21 0.22 0.25 0.26 0.27 0.27 0.27 0.28 0.28 0.27 0.26 0.27 0.27 0.27 0.25 0.24 0.23 0.24 0.24 0.25
0.21 0.21 0.22 0.24 0.25 0.25 0.26 0.26 0.25 0.23 0.23 0.23 0.23 0.23 0.24 0.25 0.26 0.25 0.24 0.24 0.24 0.24
0.22 0.24 0.26 0.26 0.26 0.26 0.24 0.22 0.21 0.20 0.20 0.20 0.20 0.20 0.23 0.25 0.25 0.25 0.25 0.25 0.24 0.25
Wind_Speed
7 7 9 11 13 14 16 18 19 20 21 22 25 27 26 24 23 23 27 31 29 32
6 6 6 8 11 12 13 11 12 15 17 20 22 23 25 26 25 24 22 21 23 25
7 7 7 8 8 9 9 12 15 17 19 20 22 22 22 23 23 23 25 21 21 21
9 9 9 10 10 11 14 16 17 19 19 20 21 21 21 21 21 23 22 22 24 24
12 12 11 12 12 13 14 16 17 18 19 20 21 22 21 22 23 23 23 24 25 25
13 14 14 15 16 17 18 19 20 21 22 23 24 23 23 24 25 25 25 26 26 26
16 17 18 19 20 22 23 24 25 25 26 26 26 26 26 26 27 27 27 27 28 28
19 20 21 23 24 25 26 27 28 28 29 29 30 29 30 30 30 30 31 31 31 31
22 23 25 26 28 29 30 31 31 32 32 33 33 34 34 34 34 35 35 35 35 34
24 27 29 30 31 32 33 34 35 35 36 36 37 38 38 38 38 38 38 39 39 39
27 30 32 32 33 34 35 35 36 37 37 37 38 39 40 40 39 40 40 40 41 41
30 31 33 34 35 37 37 37 37 38 39 39 39 39 39 39 39 40 41 41 41 42
32 34 35 36 38 37 38 38 38 38 39 39 39 39 39 39 40 41 41 42 43 44
34 36 37 38 38 39 39 38 39 39 38 37 37 37 38 39 40 42 43 44 44 44
Wind_Direction
311 295 274 269 271 278 279 275 272 273 276 279 282 280 283 284 285 282 271 265 264 264
342 326 305 291 281 286 281 283 281 286 286 288 291 290 279 284 284 279 280 275 267 264
357 352 335 315 302 301 287 293 295 294 294 296 296 293 292 286 282 281 275 266 276 264
353 342 340 332 324 308 303 300 299 300 301 300 301 301 296 293 290 280 279 276 275 277
353 349 342 334 329 323 317 312 310 308 306 304 303 304 298 295 293 290 287 283 282 280
339 335 330 326 322 318 315 312 309 307 306 304 303 302 300 296 294 291 288 285 284 283
328 325 322 319 317 315 312 310 308 306 304 302 301 298 299 298 296 293 290 286 285 282
322 320 318 316 314 312 310 308 306 304 302 300 299 296 296 295 293 291 290 288 285 284
319 319 317 315 313 311 309 308 306 304 302 300 297 296 295 294 293 292 289 287 285 283
317 316 314 313 311 310 308 306 305 303 301 299 297 296 294 293 291 290 288 287 285 283
317 317 316 315 314 312 310 308 306 304 302 300 298 296 294 292 291 290 288 286 285 283
319 319 318 317 316 314 312 310 308 306 304 301 299 297 296 294 292 291 290 288 286 284
317 317 316 316 315 314 312 309 309 307 306 303 301 300 298 296 294 293 291 290 288 286
317 317 316 316 315 313 313 311 310 309 308 307 305 303 301 299 297 295 293 292 290 288